Regional Weather Roundup
Issued by NWS

Home | Current Version | Previous Version | Graphics & Text | Print | Product List | Glossary On
Versions: 1 2 3 4 5 6 7 8 9 10 11 12 13 14 15 16 17 18 19 20 21 22 23 24 25 26 27 28 29 30 31 32 33 34 35 36 37 38 39 40 41 42 43 44 45 46 47 48 49 50
000
ASUS43 KOAX 240202
RWRNE

WEATHER ROUNDUP FOR NEBRASKA
NATIONAL WEATHER SERVICE OMAHA NE
900 PM CDT SUN JUL 23 2017

NOTES: SATELLITE DATA IS BEING USED TO AUGMENT CLOUD COVER ABOVE
       12000 FEET.
       "FAIR" INDICATES FEW OR NO CLOUDS BELOW 12,000 FEET WITH NO
       SIGNIFICANT WEATHER AND/OR OBSTRUCTIONS TO VISIBILITY.


NEZ001>004-019>022-054>056-240300-
NEBRASKA PANHANDLE

CITY           SKY/WX    TMP DP  RH WIND       PRES   REMARKS
SCOTTSBLUFF    CLEAR     83  53  35 E8        29.98F
ALLIANCE       CLEAR     82  47  29 SE8       29.99F
CHADRON        CLEAR     88  52  29 SE8       29.93F
GORDON         FAIR      78  57  47 E7        29.99S
KIMBALL        CLOUDY    84  47  28 SE15      30.09R
SIDNEY         CLEAR     84  44  24 S12       30.07R
$$

NEZ057>060-069>072-079>082-240300-
SOUTHWEST NEBRASKA

CITY           SKY/WX    TMP DP  RH WIND       PRES   REMARKS
NORTH PLATTE   CLEAR     82  64  54 SE13      29.98S
IMPERIAL       CLEAR     83  49  30 S8        30.00S
LEXINGTON      CLEAR     79  65  62 E7        29.99S
MCCOOK         CLEAR     83  59  44 SE9       29.98R
OGALLALA       CLEAR     85  53  33 CALM      29.99S
$$

NEZ005>010-023>029-035>040-094-240300-
NORTH CENTRAL NEBRASKA

CITY           SKY/WX    TMP DP  RH WIND       PRES   REMARKS
VALENTINE      CLEAR     85  49  28 E13       29.98S
AINSWORTH      CLEAR     77  60  55 E7        30.01S
BROKEN BOW     CLEAR     78  60  53 E8        30.00R
O`NEILL        CLEAR     75  63  66 E7        30.00S
ORD            CLEAR     77  59  53 E6        29.97S
THEDFORD       CLEAR     83  54  35 E13       30.01R
$$

NEZ041-046>049-061>064-073>077-083>087-240300-
SOUTH CENTRAL NEBRASKA

CITY           SKY/WX    TMP DP  RH WIND       PRES   REMARKS
GRAND ISLAND   CLEAR     77  66  68 E6        29.98S
AURORA         CLEAR     74  71  88 E6        29.98R
HASTINGS       CLEAR     77  68  73 E6        29.99S
HEBRON         CLEAR     81  68  65 NE3       29.95R
HOLDREGE       CLEAR     76  66  71 E7        29.99S
KEARNEY        CLEAR     75  67  76 E7        29.99R
YORK           CLEAR     75  68  78 NE5       29.98R
$$

NEZ011>018-030>034-042>045-240300-
NORTHEAST NEBRASKA

CITY           SKY/WX    TMP DP  RH WIND       PRES   REMARKS
NORFOLK        CLEAR     75  56  51 E6        29.98R
ALBION         CLEAR     76  62  60 NE6       29.99S
BLAIR          CLEAR     76  61  58 N7        29.95S
COLUMBUS       CLEAR     72  63  73 NE8       29.97S
FREMONT        CLEAR     77  61  57 N3        29.96S
TEKAMAH        CLEAR     74  63  68 N6        29.95R
WAYNE          CLEAR     72  62  70 CALM      29.98R
$$

NEZ050>053-065>068-078-088>093-240300-
SOUTHEAST NEBRASKA

CITY           SKY/WX    TMP DP  RH WIND       PRES   REMARKS
LINCOLN        CLEAR     76  64  66 N5        29.96R
OMAHA EPPLEY   PTCLDY    77  63  61 N6        29.93R
BEATRICE       CLEAR     78  67  66 NE6       29.95R
FALLS CITY     CLEAR     77  69  76 N5        29.92R
NEBRASKA CITY  CLEAR     76  68  78 N3        29.94R
PLATTSMOUTH    CLEAR     76  58  52 N3        29.94R
$$

NEZ044-045-051>053-067-240300-
OMAHA AREA

CITY           SKY/WX    TMP DP  RH WIND       PRES   REMARKS
OMAHA EPPLEY   PTCLDY    77  63  61 N6        29.93R
BLAIR          CLEAR     76  61  58 N7        29.95S
FREMONT        CLEAR     77  61  57 N3        29.96S
MILLARD        CLEAR     82  60  47 N3        29.94R
OFFUTT AFB     CLEAR     78  60  52 N7        29.93R
PLATTSMOUTH    CLEAR     76  58  52 N3        29.94R
WAHOO          FAIR      72  63  72 N7        29.95S
$$



USA.gov is the U.S. government's official web portal to all federal, state and local government web resources and services.